EZY85J GCTS-LPMA

Flight info

Callsign EZY85J
Flight time N/A
Altitude 36000
Route BIMBO DCT EKNOT
Aircraft A20N/M-SDE2E3FGHIRWXY/LB1

Departure

Time 2026-04-29 09:42
Airport Tenerife Sur Airport (GCTS)

Arrival

Time N/A
Airport Cristiano Ronaldo International Airport (LPMA)
Time Latitude Longitude Altitude Speed Heading
2026-04-29 09:31 28.04420 -16.58119 206 ft 0 kts 338°
2026-04-29 09:36 28.04419 -16.58118 206 ft 2 kts 338°
2026-04-29 09:37 28.04402 -16.58110 211 ft 3 kts 338°
2026-04-29 09:37 28.04384 -16.58103 207 ft 3 kts 338°
2026-04-29 09:37 28.04367 -16.58095 211 ft 2 kts 338°
2026-04-29 09:37 28.04354 -16.58083 208 ft 2 kts 268°
2026-04-29 09:38 28.04354 -16.58077 197 ft 0 kts 244°
2026-04-29 09:38 28.04353 -16.58078 197 ft 0 kts 244°
2026-04-29 09:38 28.04351 -16.58085 197 ft 2 kts 244°
2026-04-29 09:39 28.04340 -16.58108 201 ft 5 kts 240°
2026-04-29 09:39 28.04316 -16.58156 201 ft 9 kts 241°
2026-04-29 09:39 28.04290 -16.58235 208 ft 12 kts 253°
2026-04-29 09:39 28.04254 -16.58338 200 ft 16 kts 248°
2026-04-29 09:40 28.04209 -16.58465 198 ft 19 kts 248°
2026-04-29 09:40 28.04168 -16.58613 196 ft 21 kts 249°
2026-04-29 09:40 28.04108 -16.58774 205 ft 21 kts 233°
2026-04-29 09:40 28.04006 -16.58740 200 ft 16 kts 108°
2026-04-29 09:41 28.03991 -16.58612 199 ft 17 kts 96°
2026-04-29 09:41 28.04021 -16.58460 208 ft 33 kts 69°
2026-04-29 09:41 28.04191 -16.57965 203 ft 99 kts 69°
2026-04-29 09:41 28.04514 -16.57058 209 ft 147 kts 68°
2026-04-29 09:42 28.04897 -16.55967 733 ft 143 kts 70°
2026-04-29 09:42 28.05247 -16.54891 1231 ft 149 kts 71°
2026-04-29 09:42 28.05582 -16.53770 1803 ft 153 kts 72°
2026-04-29 09:42 28.05931 -16.52546 2136 ft 174 kts 70°
2026-04-29 09:43 28.06393 -16.51195 2508 ft 196 kts 68°
2026-04-29 09:43 28.06933 -16.49687 2866 ft 222 kts 67°
2026-04-29 09:43 28.07575 -16.47958 3381 ft 247 kts 66°
2026-04-29 09:43 28.08278 -16.46121 3954 ft 267 kts 66°
2026-04-29 09:44 28.09040 -16.44176 4792 ft 276 kts 66°
2026-04-29 09:44 28.09823 -16.42156 5651 ft 284 kts 66°
2026-04-29 09:44 28.10612 -16.40084 6543 ft 289 kts 68°
2026-04-29 09:44 28.11272 -16.37933 7519 ft 290 kts 72°
2026-04-29 09:45 28.11869 -16.35730 8393 ft 295 kts 72°
2026-04-29 09:45 28.12499 -16.33493 9266 ft 300 kts 72°
2026-04-29 09:45 28.13177 -16.31236 10107 ft 305 kts 71°
2026-04-29 09:45 28.13908 -16.28899 10548 ft 326 kts 70°
2026-04-29 09:46 28.14709 -16.26396 10802 ft 350 kts 70°
2026-04-29 09:46 28.15563 -16.23752 11333 ft 362 kts 70°
2026-04-29 09:46 28.16433 -16.21059 12104 ft 367 kts 70°
2026-04-29 09:46 28.17316 -16.18323 12865 ft 372 kts 70°
2026-04-29 09:47 28.18212 -16.15539 13611 ft 378 kts 70°
2026-04-29 09:47 28.19121 -16.12714 14309 ft 383 kts 70°
2026-04-29 09:47 28.20027 -16.09893 15009 ft 387 kts 70°
2026-04-29 09:47 28.21139 -16.07096 15683 ft 391 kts 56°
2026-04-29 09:48 28.22931 -16.04780 16327 ft 393 kts 37°
2026-04-29 09:48 28.25269 -16.03198 16978 ft 392 kts 18°
2026-04-29 09:48 28.27909 -16.02503 17623 ft 390 kts 360°
2026-04-29 09:48 28.30600 -16.02708 18302 ft 387 kts 346°
2026-04-29 09:49 28.33247 -16.03333 18877 ft 390 kts 344°
2026-04-29 09:49 28.35886 -16.03967 19472 ft 394 kts 345°
2026-04-29 09:49 28.38607 -16.04520 20064 ft 398 kts 347°
2026-04-29 09:49 28.41361 -16.04990 20640 ft 402 kts 348°
2026-04-29 09:50 28.44148 -16.05412 21214 ft 406 kts 349°
2026-04-29 09:50 28.46969 -16.05815 21780 ft 410 kts 349°
2026-04-29 09:50 28.49814 -16.06215 22343 ft 413 kts 349°
2026-04-29 09:50 28.52682 -16.06618 22897 ft 417 kts 349°
2026-04-29 09:51 28.55575 -16.07026 23452 ft 420 kts 349°
2026-04-29 09:51 28.58489 -16.07439 23906 ft 425 kts 350°
2026-04-29 09:51 28.61403 -16.07853 24326 ft 429 kts 350°
2026-04-29 09:51 28.64373 -16.08274 24812 ft 431 kts 350°
2026-04-29 09:52 28.67360 -16.08698 25256 ft 434 kts 350°
2026-04-29 09:52 28.70366 -16.09125 25687 ft 437 kts 350°
2026-04-29 09:52 28.73391 -16.09556 26114 ft 440 kts 350°
2026-04-29 09:52 28.76435 -16.09989 26532 ft 442 kts 350°
2026-04-29 09:53 28.79499 -16.10425 26936 ft 445 kts 350°
2026-04-29 09:53 28.82583 -16.10864 27332 ft 448 kts 350°
2026-04-29 09:53 28.85687 -16.11307 27740 ft 450 kts 350°
2026-04-29 09:53 28.88806 -16.11752 28144 ft 452 kts 350°
2026-04-29 09:54 28.91945 -16.12154 28495 ft 457 kts 354°
2026-04-29 09:54 28.95143 -16.12125 28850 ft 462 kts
2026-04-29 09:54 28.98337 -16.11575 29199 ft 467 kts 11°
2026-04-29 09:54 29.01477 -16.10560 29522 ft 471 kts 15°
2026-04-29 09:55 29.04630 -16.09468 29845 ft 473 kts 14°
2026-04-29 09:55 29.07757 -16.08395 30166 ft 476 kts 14°
2026-04-29 09:55 29.10939 -16.07305 30453 ft 478 kts 14°
2026-04-29 09:55 29.14133 -16.06208 30761 ft 480 kts 14°
2026-04-29 09:56 29.17331 -16.05108 31115 ft 481 kts 14°
2026-04-29 09:56 29.20537 -16.04004 31441 ft 482 kts 14°
2026-04-29 09:56 29.23746 -16.02897 31810 ft 481 kts 14°
2026-04-29 09:56 29.26955 -16.01790 32185 ft 481 kts 14°
2026-04-29 09:57 29.30164 -16.00682 32550 ft 481 kts 14°
2026-04-29 09:57 29.33371 -15.99574 32912 ft 480 kts 14°
2026-04-29 09:57 29.36560 -15.98470 33355 ft 477 kts 14°
2026-04-29 09:57 29.39738 -15.97371 33708 ft 477 kts 13°
2026-04-29 09:58 29.42914 -15.96272 34046 ft 477 kts 13°
2026-04-29 09:58 29.46078 -15.95176 34403 ft 474 kts 13°
2026-04-29 09:58 29.49199 -15.94094 34680 ft 473 kts 13°
2026-04-29 09:58 29.51331 -15.93356 34852 ft 473 kts 13°
2026-04-29 09:59 29.55513 -15.91905 35188 ft 473 kts 13°
2026-04-29 09:59 29.58668 -15.90810 35437 ft 473 kts 13°
2026-04-29 09:59 29.61818 -15.89716 35687 ft 473 kts 13°
2026-04-29 09:59 29.64967 -15.88621 35915 ft 473 kts 13°
2026-04-29 10:00 29.70202 -15.86800 36022 ft 472 kts 13°
2026-04-29 10:00 29.76487 -15.84611 36023 ft 471 kts 13°
2026-04-29 10:01 29.82779 -15.82416 36021 ft 471 kts 13°
2026-04-29 10:01 29.89017 -15.80238 36021 ft 471 kts 13°
2026-04-29 10:02 29.95342 -15.78162 36021 ft 468 kts
2026-04-29 10:02 30.01727 -15.77610 36029 ft 459 kts 352°
2026-04-29 10:03 30.08020 -15.78587 36027 ft 455 kts 346°
2026-04-29 10:03 30.14290 -15.79717 36027 ft 455 kts 347°
2026-04-29 10:04 30.20554 -15.80850 36025 ft 455 kts 346°
2026-04-29 10:04 30.26816 -15.81991 36024 ft 455 kts 346°
2026-04-29 10:05 30.33070 -15.83133 36032 ft 455 kts 347°
2026-04-29 10:05 30.39281 -15.84269 36028 ft 454 kts 347°
2026-04-29 10:06 30.45539 -15.85414 36025 ft 454 kts 347°
2026-04-29 10:06 30.51784 -15.86558 36022 ft 453 kts 347°
2026-04-29 10:07 30.57978 -15.87695 36032 ft 453 kts 347°
2026-04-29 10:07 30.64208 -15.88840 36027 ft 452 kts 347°
2026-04-29 10:08 30.70423 -15.89983 36023 ft 452 kts 347°
2026-04-29 10:08 30.76629 -15.91126 36019 ft 451 kts 347°
2026-04-29 10:09 30.82834 -15.92271 36024 ft 451 kts 347°
2026-04-29 10:09 30.88990 -15.93409 36021 ft 450 kts 347°
2026-04-29 10:10 30.95173 -15.94552 36016 ft 450 kts 347°
2026-04-29 10:10 31.01346 -15.95696 36013 ft 449 kts 347°
2026-04-29 10:11 31.07526 -15.96841 36032 ft 449 kts 347°
2026-04-29 10:11 31.13701 -15.97988 36017 ft 449 kts 347°
2026-04-29 10:12 31.19881 -15.99136 36013 ft 449 kts 347°
2026-04-29 10:12 31.26065 -16.00288 36003 ft 450 kts 347°
2026-04-29 10:13 31.32248 -16.01440 36005 ft 450 kts 347°
2026-04-29 10:13 31.38441 -16.02596 36011 ft 451 kts 347°
2026-04-29 10:14 31.44546 -16.04110 36013 ft 446 kts 339°
2026-04-29 10:14 31.50461 -16.06169 35523 ft 443 kts 339°
2026-04-29 10:15 31.53422 -16.07190 34581 ft 445 kts 340°
2026-04-29 10:15 31.54428 -16.07537 34190 ft 447 kts 340°